SCP
0 0 0 0 0 0 0 0 0 0 0 0 0 0 0 0 0 0 0 0 0 0 0 0 0 0 0 0 0 0 0 0 0 0 0 0 0 0 0 -0 -0 0 0 0 0 0 0 0 0 0 0 -0 0 0
0 0 0 0 0 0 0 0 0 0 0 0 0 0 0 0 0 0 0 0 0 0 0 0 -0 0 -0 0 0 0 0 0 0 0 0 0 0 0 0 -0 -0 0 0 0 0 0 0 0 0 0 0 0 0 0
0 0 0 0 0 0 0 0 0 0 0 0 0 0 0 0 0 0 0 0 0 0 0 0 0 0 0 0 0 0 0 0 0 0 0 0 0 0 0 -0 -0 -0 0 0 0 0 0 0 0 0 0 0 0 0
0 0 0 0 0 0 0 0 0 0 0 0 0 0 0 0 0 0 0 0 0 0 0 0 0 0 0 0 0 0 0 0 0 0 0 0 0 0 0 0 0 0 0 0 0 0 -0 0 0 0 0 0 0 -0
0 0 0 0 0 0 0 0 0 0 0 0 0 0 0 0 0 0 0 0 0 0 0 0 -0 0 0 0 0 0 0 0 0 0 0 0 0 0 0 -0 0 0 0 0 0 0 0 0 0 -0 0 -0 -0 -0
0 0 0 0 0 0 0 0 0 0 0 0 0 0 0 0 0 0 0 0 -0 0 0 0 0 0 0 0 0 0 0 0 0 0 0 0 0 0 0 0 0 0 0 0 0 0 0 0 0 0 0 -0 -0 -0
0 0 0 0 0 0 0 0 0 0 0 0 0 0 0 0 0 0 0 0 0 0 0 0 0 0 0 0 0 0 0 0 0 0 0 -0 0 0 0 0 -0 0 0 0 0 0 0 0 0 -0 0 0 0 0
0 0 0 0 0 0 0 0 0 0 0 0 0 0 0 0 0 0 0 0 0 0 0 0 0 0 0 0 0 0 0 0 0 0 0 0 0 0 0 0 -0 0 0 0 0 0 0 0 0 0 0 0 -0 0
0 0 0 0 0 0 0 0 0 0 0 0 0 0 0 0 0 0 0 0 0 0 0 0 0 0 0 0 0 0 0 0 0 0 0 0 -0 0 -0 -0 0 0 0 0 0 0 0 0 0 0 -0 0 0 -0
0 0 0 0 0 0 0 0 0 0 0 0 0 0 0 0 0 0 0 0 0 0 0 0 -0 0 0 0 0 0 0 0 0 -0 0 0 0 -0 -0 0 0 0 0 0 0 0 0 0 0 0 0 0 0 0
0 0 0 0 0 0 0 0 0 0 0 0 0 0 0 0 0 0 0 0 0 0 0 0 -0 0 0 0 0 -0 -0 -0 0 -0 0 0 0 -0 -0 0 0 0 0 0 0 0 0 0 0 0 0 0 0 0
0 0 0 0 0 0 0 0 0 0 0 0 0 0 0 0 0 0 0 0 0 0 0 -0 0 -0 0 0 -0 -0 -0 -0 -0 -0 -0 0 0 -0 -0 0 0 -0 -0 0 0 0 0 0 0 0 0 0 0 0
-0 -0 -0 0 0 0 0 -0 0 0 0 0 0 0 0 0 0 0 0 -0 0 -0 0 0 0 0 0 -0 -0 -0 -0 0 -0 -0 0 0 0 0 0 0 -0 -0 -0 0 0 0 0 0 0 0 0 0 0 0
0 0 0 0 0 0 -0 -0 -0 0 0 0 0 0 0 0 -0 0 -0 0 0 0 0 -0 -0 0 0 -0 -0 -0 -0 -0 0 -0 0 -0 0 0 0 -0 -0 0 0 0 0 0 0 0 -0 0 0 0 0 0
0 0 0 0 0 -0 -0 -0 0 0 0 0 0 0 0 0 0 -0 0 -0 0 0 0 0 0 0 0 0 0 -0 -0 0 0 -0 -0 -0 0 0 -0 -0 -0 -0 0 0 0 0 0 0 -0 -0 -0 0 -0 0
0 0 0 0 -0 -0 -0 0 0 0 0 0 0 0 0 0 0 0 0 0 0 0 -0 0 0 -0 -0 0 0 0 -0 0 -0 -0 -0 -0 0 0 0 0 -0 -0 -0 -0 -0 -0 -0 -0 -0 -0 -0 0 -0 -0
0 0 -0 -0 -0 -0 -0 0 0 0 0 0 0 0 0 -0 0 0 0 0 0 0 0 0 0 0 -0 0 0 0 0 -0 0 0 0 -0 -0 0 0 0 -0 -0 -0 -0 -0 -0 -0 -0 -0 -0 -0 0 -0 0
0 0 -0 -0 -0 0 0 0 0 0 0 0 0 0 0 0 0 0 0 0 0 0 0 0 0 0 0 0 0 0 0 0 0 0 0 -0 -0 -0 -0 0 0 0 -0 -0 -0 -0 -0 -0 -0 -0 0 -0 -0 -0
0 -0 -0 -0 0 0 0 0 0 0 0 0 0 0 0 0 0 0 0 0 0 0 0 0 0 0 0 0 0 0 0 0 0 0 0 0 0 0 0 0 0 0 0 0 -0 -0 -0 -0 -0 -0 0 0 -0 -0
-0 -0 -0 0 0 0 0 0 0 0 0 0 0 0 0 0 0 0 0 0 0 0 0 0 0 0 0 0 0 0 0 0 0 0 0 0 0 0 0 0 0 0 0 0 0 0 0 0 0 0 -0 0 -0 0
0 0 0 0 0 0 0 0 0 0 0 0 -0 0 0 0 0 -0 0 0 0 0 0 0 0 0 0 0 0 0 0 0 0 0 0 0 0 0 0 0 0 0 0 0 0 0 0 0 0 0 0 -0 -0 -0
0 0 0 0 0 0 0 0 0 0 0 0 -0 0 -0 -0 0 -0 0 0 0 0 0 0 0 0 0 0 0 0 0 0 -0 0 0 0 0 0 0 0 0 0 0 0 0 0 0 0 -0 -0 -0 -0 0 -0
0 0 0 0 0 0 0 0 0 0 0 0 -0 -0 -0 -0 0 0 0 0 0 0 0 0 0 0 0 0 0 0 0 -0 0 0 0 0 0 0 0 0 0 0 0 0 0 0 0 0 0 -0 -0 0 0 -0
0 0 0 0 0 0 0 0 0 0 0 0 0 0 -0 0 -0 0 -0 -0 0 0 0 0 0 0 0 0 0 0 0 0 0 0 0 0 0 0 0 0 0 0 0 0 0 0 0 0 0 0 0 0 0 0
0 0 0 0 0 0 0 0 0 0 0 0 0 0 0 0 0 0 0 0 0 0 0 0 0 0 0 0 0 0 0 0 0 0 0 0 0 0 0 0 0 0 0 0 0 0 0 0 0 0 0 0 0 0
0 0 0 0 0 0 0 0 0 0 0 0 0 0 0 0 0 0 0 0 0 0 0 0 0 0 0 0 0 0 0 0 0 0 0 0 0 0 0 0 0 0 0 0 0 0 0 0 0 0 0 0 0 0
0 0 0 0 0 0 0 0 0 0 0 0 0 0 0 0 0 0 0 0 0 0 0 0 0 0 0 0 0 0 0 0 0 0 0 0 0 0 0 0 0 0 0 0 0 0 0 0 0 0 0 0 0 0
0 0 0 0 0 0 0 0 0 0 0 0 0 0 0 0 0 0 0 0 0 0 0 0 0 0 0 0 0 0 0 0 0 0 0 0 0 0 0 0 0 0 0 0 0 0 0 0 0 0 0 0 0 0
0 0 0 0 0 0 0 0 0 0 0 0 0 0 0 0 0 0 0 0 0 0 0 0 0 0 0 0 0 0 0 0 0 0 0 0 0 0 0 0 0 0 0 0 0 -0 0 0 0 0 0 0 -0 -0
0 0 0 0 0 0 0 0 0 0 0 0 0 0 0 0 0 0 0 0 0 0 0 0 0 0 0 0 0 0 0 0 0 0 0 0 0 0 0 0 0 0 0 0 0 0 0 0 0 0 0 0 0 -0
0 0 0 0 0 0 0 0 0 0 0 0 0 0 0 0 0 0 0 0 0 0 0 0 0 0 0 0 0 0 0 0 0 0 0 0 0 0 0 0 0 0 0 0 0 0 0 0 0 0 0 0 0 0
0 0 0 0 0 0 0 0 0 0 0 0 0 0 0 0 0 0 0 0 0 0 0 0 0 0 0 0 0 0 0 0 0 0 0 0 0 0 0 0 0 0 0 0 0 0 0 0 0 0 0 0 0 0
0 0 0 0 0 0 0 0 0 0 0 0 0 0 0 0 0 0 0 0 0 0 0 0 0 0 0 0 0 0 0 0 0 0 0 0 0 0 0 0 0 0 0 0 0 0 0 0 0 0 0 0 0 0
Wind_Speed_500mb
42 43 43 43 43 45 47 47 57 59 52 46 34 25 20 33 30 34 25 16 16 16 48 41 21 31 27 25 17 30 16 5 7 7 5 4 7 11 14 18 16 11 7 8 12 11 13 36 18 22 30 52 55 54
39 38 38 41 42 41 39 42 41 48 49 43 30 25 20 30 33 30 30 7 19 21 28 41 56 52 37 29 22 16 19 15 9 7 7 9 8 9 15 10 21 7 3 6 8 11 39 43 42 50 47 54 56 61
37 30 30 32 34 38 40 40 39 39 48 41 29 20 17 24 29 28 32 22 16 21 44 26 26 13 17 23 19 13 5 10 6 10 8 6 8 6 8 10 18 19 24 12 19 9 34 65 46 54 59 71 79 81
38 34 31 32 34 33 35 37 36 35 44 42 29 22 21 21 32 29 31 13 12 11 11 5 3 2 14 17 19 22 21 12 13 16 10 6 7 11 11 16 20 9 21 16 27 29 63 31 54 60 72 77 76 79
45 41 36 36 37 35 34 34 33 31 38 42 30 17 15 20 33 34 35 32 27 14 9 28 45 29 26 18 15 17 18 10 11 9 6 6 12 11 13 15 6 7 7 5 8 46 37 50 71 82 81 71 68 82
43 40 36 36 35 37 35 34 33 26 33 38 23 17 17 24 33 26 12 6 20 25 9 8 18 10 31 23 20 19 17 13 10 6 9 12 9 4 5 7 7 25 27 25 16 47 58 69 69 67 76 66 84 86
45 44 37 37 38 40 38 32 29 22 33 30 18 16 24 20 36 19 10 8 27 22 7 12 10 9 31 27 28 19 16 9 7 4 9 19 12 5 3 5 29 38 39 45 36 39 44 50 64 83 61 83 91 82
47 53 39 39 41 41 36 30 27 17 30 21 18 15 13 24 25 33 33 26 27 19 7 6 9 13 29 26 18 21 18 9 10 7 9 9 1 7 5 9 30 37 51 41 42 54 58 73 69 73 76 81 81 72
50 47 36 35 38 34 28 27 21 21 25 22 19 13 22 19 14 12 8 22 21 15 6 7 7 1 21 30 25 23 21 8 15 7 5 9 5 3 14 26 26 38 35 51 57 55 58 64 66 73 80 83 82 79
49 46 40 39 39 37 28 25 26 26 26 28 23 11 8 8 10 9 14 19 17 12 12 9 28 17 20 17 13 9 17 7 6 7 8 5 2 11 22 20 26 37 41 42 49 59 62 62 67 75 77 85 78 82
37 37 41 43 41 35 27 30 32 34 37 38 16 11 11 11 14 7 9 13 14 8 14 18 36 19 14 7 7 7 5 1 4 5 4 6 4 13 22 25 31 37 36 41 42 50 58 65 60 73 81 80 89 84
47 47 45 42 39 29 32 40 46 54 35 33 18 15 12 10 9 6 7 9 10 8 18 18 18 24 1 5 4 6 5 3 5 15 5 4 4 16 21 27 36 40 42 47 41 52 56 63 57 69 84 83 88 81
51 47 46 39 33 33 38 45 56 48 38 29 8 9 8 9 9 10 10 8 9 12 14 17 9 5 7 6 7 5 7 5 15 7 5 4 14 18 24 29 38 44 48 45 42 46 55 62 61 62 82 90 87 82
37 33 31 33 34 39 47 59 56 54 33 9 12 9 9 10 10 11 13 10 10 4 16 15 16 9 5 5 3 6 3 5 6 4 6 7 20 21 26 29 37 49 54 52 44 48 54 62 66 65 72 89 87 88
29 31 30 32 36 46 59 60 53 56 11 10 10 9 15 18 14 16 21 22 6 4 6 6 10 7 4 3 4 6 5 2 7 6 6 17 20 24 28 32 36 49 58 59 45 49 58 63 66 68 69 86 91 95
27 25 35 33 45 62 63 62 57 38 10 7 10 9 11 9 17 22 23 13 9 8 7 8 5 7 4 3 4 3 9 5 4 3 7 16 22 25 28 31 35 41 49 61 43 46 50 55 61 62 67 71 92 91
28 26 33 46 63 70 66 59 30 11 10 8 12 25 16 16 12 14 15 12 13 16 10 6 6 5 8 3 2 3 2 1 11 13 10 13 21 27 29 28 34 38 43 53 55 54 49 48 53 60 72 71 84 94
45 39 53 70 82 79 56 21 11 13 12 20 11 18 26 18 14 15 9 7 7 17 9 5 1 6 6 2 5 8 8 3 7 7 8 14 17 21 24 29 31 36 40 43 44 54 60 52 52 59 65 71 70 86
53 61 72 78 79 44 12 20 10 9 20 11 25 19 24 15 2 11 9 4 9 9 4 5 2 4 3 7 13 16 10 6 5 5 7 12 15 19 22 25 27 32 36 37 38 45 55 54 49 49 62 70 59 78
59 68 73 74 61 10 9 10 14 8 8 14 19 21 25 20 15 10 10 11 12 7 5 4 6 9 14 16 12 13 12 11 10 8 8 8 11 16 21 23 27 29 31 36 33 38 46 60 66 54 55 63 57 77
86 88 77 60 25 9 8 12 14 12 8 13 23 27 19 20 19 20 15 10 9 5 6 4 21 15 18 16 14 14 13 13 15 11 7 16 17 18 21 24 27 29 33 38 41 44 48 52 63 70 45 50 55 59
67 83 63 41 5 4 5 11 6 7 8 11 30 28 20 22 23 18 16 12 7 9 4 17 19 21 18 16 14 15 16 13 7 7 7 9 18 20 23 25 29 30 34 39 41 44 47 50 55 61 53 41 43 48
76 56 30 6 4 7 5 15 8 10 8 16 28 13 11 15 8 14 7 6 7 9 11 21 23 17 20 19 18 17 14 10 14 12 13 14 15 17 19 23 28 30 33 36 37 39 43 48 52 51 55 51 38 46
52 14 11 15 12 9 12 13 11 9 10 14 13 8 10 8 12 5 6 13 14 19 22 23 25 23 21 18 16 14 12 9 11 12 12 12 14 16 18 20 24 28 30 29 33 37 39 41 47 51 53 60 50 37
11 9 10 6 14 12 11 10 9 8 8 13 16 6 8 9 6 7 9 17 24 26 25 27 25 22 20 20 15 10 7 7 9 11 12 12 12 12 14 16 20 27 31 33 37 38 39 39 43 45 50 60 58 45
5 11 16 14 12 10 9 11 13 15 11 10 9 11 11 7 8 5 3 22 27 29 29 28 25 20 20 17 16 13 9 8 8 10 11 12 14 14 15 17 19 23 28 31 34 38 39 39 42 45 44 46 53 50
6 8 12 12 11 10 7 7 11 10 11 7 10 9 7 8 8 6 13 11 25 26 24 22 19 17 20 16 13 11 8 8 10 12 11 12 15 17 17 18 21 22 22 28 31 34 38 37 39 41 42 41 42 46
5 6 9 7 7 6 5 6 9 10 7 8 17 11 12 2 5 6 9 11 19 21 18 17 15 17 19 16 13 12 11 9 10 13 12 12 16 18 17 15 18 29 23 29 32 31 37 33 34 36 39 37 38 39
6 8 18 7 7 6 9 7 4 4 1 12 8 6 7 8 12 14 12 18 23 22 24 25 22 21 20 18 15 11 9 5 10 11 13 11 5 12 16 16 17 19 20 22 30 38 35 33 33 33 33 32 35 36
10 17 8 8 7 2 4 6 12 15 20 23 26 34 36 29 22 20 24 21 21 22 22 22 18 20 20 18 15 12 12 13 11 9 9 9 6 8 11 14 16 17 20 21 22 25 31 27 29 31 34 34 40 43
19 10 8 7 6 10 17 19 18 19 24 30 32 38 35 31 29 21 15 13 17 20 20 18 19 17 15 14 12 15 12 10 14 15 14 6 4 6 11 14 16 17 18 21 22 24 30 31 32 35 36 38 40 42
10 10 9 6 6 13 18 13 10 11 18 29 31 30 30 24 12 8 17 13 14 19 16 17 18 16 16 17 16 24 23 19 12 6 8 5 1 5 10 12 13 15 17 17 19 22 32 38 34 35 37 39 41 41
6 10 8 12 7 7 11 11 6 5 7 9 11 16 15 8 8 5 2 17 17 11 16 17 19 20 22 20 18 15 10 5 8 7 6 7 8 8 8 12 10 14 14 12 14 15 21 31 30 29 31 33 36 37
Wind_Direction_500mb
293 293 291 286 289 289 282 272 271 275 284 292 296 297 282 275 289 303 303 235 257 273 284 276 294 291 279 262 294 351 292 354 310 290 303 323 314 326 310 314 292 189 240 217 251 245 263 10 357 359 311 312 316 317
288 292 294 292 289 290 286 278 273 273 275 284 275 283 270 265 288 298 306 239 269 261 266 271 277 264 251 261 290 291 304 285 354 327 349 324 340 302 322 306 324 360 11 276 294 298 316 350 333 329 350 334 325 319
289 294 301 305 299 293 288 282 270 268 268 278 281 255 255 265 282 293 300 287 275 286 301 272 278 258 229 228 227 253 315 343 40 338 324 290 279 273 289 302 334 321 15 342 331 310 343 335 338 337 326 317 308 307
287 289 294 304 307 304 299 287 273 266 264 271 276 267 242 266 269 296 292 291 266 280 279 330 269 295 226 208 219 229 262 293 317 306 307 278 272 291 297 308 307 4 339 336 291 304 336 314 319 316 316 316 309 303
276 281 287 294 304 298 300 293 275 267 260 262 280 262 261 260 264 275 303 293 213 243 302 301 290 277 212 201 218 225 237 261 285 300 260 266 285 329 318 282 55 359 336 310 286 308 301 293 304 310 310 313 319 319
266 274 278 289 295 293 291 294 277 265 259 258 276 232 262 263 250 271 316 9 187 225 273 289 318 259 196 200 208 204 213 223 231 293 272 273 298 357 323 316 133 353 342 331 285 294 295 296 303 310 308 317 327 320
263 261 271 284 294 292 283 282 275 257 251 252 247 245 237 265 231 261 252 219 185 221 257 288 281 244 199 206 209 199 201 198 223 222 253 261 288 136 250 263 349 343 331 317 307 315 310 309 306 314 323 322 323 323
265 263 262 277 284 283 276 269 263 241 247 242 212 224 244 223 247 280 285 236 187 203 248 274 272 241 202 216 198 178 175 189 200 229 249 251 93 202 239 321 340 338 331 319 320 320 302 303 320 327 328 331 328 321
267 256 258 275 280 279 267 264 237 228 225 203 190 212 215 235 259 276 114 159 197 227 264 238 264 2 190 236 228 173 183 173 167 221 236 138 235 232 8 354 348 337 326 313 321 317 321 331 331 336 334 336 336 329
253 251 257 263 275 270 265 249 207 211 197 182 181 174 219 225 197 191 140 168 205 224 230 258 261 269 284 299 215 227 172 190 191 204 126 209 151 46 45 26 345 335 328 324 321 321 324 328 340 337 335 339 329 335
244 246 256 262 270 257 249 220 199 186 177 178 179 194 206 168 173 223 201 193 194 225 219 241 238 266 292 283 322 306 319 284 249 130 240 200 111 37 22 2 348 341 333 329 323 320 325 331 340 333 334 333 337 335
257 261 264 255 252 240 234 203 196 185 180 181 164 172 153 176 215 236 222 199 199 244 188 227 204 224 14 286 255 222 236 247 246 164 228 125 63 35 4 357 351 346 341 338 333 328 331 337 342 341 340 339 340 340
261 259 256 242 231 233 220 201 196 197 170 150 155 152 175 182 218 223 210 209 214 203 196 201 180 172 169 190 234 215 238 230 141 211 117 82 33 14 2 355 349 347 347 344 337 338 336 338 343 343 345 347 345 348
246 239 233 233 226 223 203 194 190 185 158 149 159 188 222 187 232 206 233 304 251 224 166 209 161 197 142 203 266 264 306 294 261 196 75 33 18 356 354 352 348 348 349 346 339 340 338 341 344 349 351 352 353 356
236 237 237 229 225 207 194 186 187 180 151 172 192 218 216 241 250 246 253 247 217 172 187 192 137 116 49 317 334 317 259 173 37 36 335 0 356 352 350 347 345 347 349 351 340 341 340 343 346 350 354 353 360 1
232 233 227 220 192 189 176 176 179 174 176 201 224 243 228 230 254 240 209 188 176 214 228 200 184 146 135 278 254 2 329 37 80 211 347 347 345 347 347 345 344 346 346 353 349 343 341 346 348 350 358 354 4 3
210 201 203 181 178 171 175 169 159 170 202 221 233 226 236 242 223 197 208 196 175 236 231 185 202 134 135 132 166 19 10 151 265 56 10 349 341 341 344 345 345 346 344 352 5 3 351 347 352 356 359 360 2 8
202 201 176 170 167 167 162 155 154 188 224 227 242 217 216 243 230 198 185 138 201 248 273 35 139 156 168 213 153 178 158 196 65 28 337 339 345 348 346 343 347 350 345 349 350 353 4 3 357 356 356 1 2 9
202 179 176 176 170 141 131 176 189 219 221 223 217 209 206 217 235 179 152 187 258 314 57 208 72 125 128 64 108 102 110 65 81 36 2 348 351 355 356 352 355 355 353 352 358 354 359 4 356 359 0 0 4 7
181 174 176 171 154 115 129 157 187 247 218 214 209 204 197 208 189 179 180 186 186 179 179 235 74 70 112 90 98 91 97 104 104 89 21 21 14 17 13 13 10 9 5 3 7 1 3 8 11 9 15 5 3 5
163 164 170 156 139 120 162 167 190 213 207 180 188 190 197 184 187 197 176 178 202 248 121 99 97 97 109 113 102 110 112 114 110 91 25 34 29 25 23 22 19 17 15 13 9 5 8 4 358 3 7 16 10 2
151 168 154 155 89 143 215 198 208 196 203 196 187 190 186 195 197 190 138 196 184 145 85 131 134 141 131 116 107 115 123 109 127 71 29 59 34 32 30 25 21 24 22 17 12 10 8 6 359 2 11 18 22 8
157 157 144 114 155 188 238 171 192 220 185 186 184 199 197 182 113 138 176 145 138 170 157 130 143 139 129 127 119 115 109 100 91 73 57 60 50 37 34 31 23 23 21 17 14 14 10 6 7 4 8 16 28 26
136 126 158 175 189 191 180 195 218 213 197 180 184 189 160 122 133 202 202 160 147 172 151 146 151 144 141 145 139 130 127 108 98 73 56 52 50 42 36 33 26 25 23 17 16 15 13 13 9 11 8 15 16 28
118 163 161 195 208 196 186 183 183 215 187 180 177 146 131 128 160 219 221 144 165 171 164 171 163 165 161 149 141 145 122 122 105 89 57 50 49 47 41 37 27 22 19 18 18 15 14 16 13 14 12 8 13 16
141 180 187 205 179 183 175 167 193 198 178 173 163 144 130 152 206 209 110 149 166 172 172 181 180 181 152 154 152 144 133 127 119 101 68 57 57 51 40 32 20 15 22 14 13 11 14 16 14 15 16 13 7 14
159 218 197 205 199 176 156 150 169 199 182 177 148 145 154 167 186 77 84 116 151 157 169 178 178 174 155 145 146 148 138 117 115 121 108 81 65 59 49 38 25 12 21 11 16 10 10 13 13 14 14 12 10 7
244 185 174 144 118 93 112 171 188 192 195 162 152 174 173 150 91 92 116 124 151 160 165 156 143 145 143 147 154 146 142 142 125 126 116 89 65 52 45 34 16 25 17 2 11 9 8 12 11 12 12 9 6 9
196 173 141 130 119 186 210 212 178 143 238 184 152 80 100 96 117 122 135 148 152 152 147 140 131 127 128 133 129 125 124 147 196 179 184 128 46 17 14 17 15 14 11 12 359 350 355 23 3 9 12 8 0 8
154 157 120 131 162 159 77 98 93 82 78 95 102 107 107 107 109 114 127 139 147 151 151 149 149 153 151 143 127 106 92 91 103 130 137 118 54 3 1 5 4 5 3 4 1 354 353 10 359 4 6 4 356 359
147 134 129 129 89 96 106 101 94 88 93 106 119 121 120 117 104 99 111 139 151 152 153 153 164 161 162 166 157 162 124 91 84 99 103 74 37 15 7 2 354 354 0 357 355 355 356 358 354 353 355 354 352 351
150 176 161 122 105 91 96 74 62 91 108 107 111 121 131 127 93 85 17 64 164 163 153 163 160 138 126 116 107 103 122 132 126 107 140 133 27 355 12 349 351 355 355 354 350 351 337 342 348 352 351 349 348 349
132 129 107 108 107 122 125 116 107 74 76 85 90 101 101 86 98 110 128 78 65 125 134 123 128 121 120 121 121 133 190 292 326 323 331 334 337 336 336 333 358 4 358 349 346 358 350 340 348 354 354 351 349 349
Wind_Speed_850mb
42 43 43 43 43 45 47 47 57 59 52 46 34 25 20 33 30 34 25 16 16 16 48 41 21 31 27 25 17 30 16 5 7 7 5 4 7 11 14 18 16 11 7 8 12 11 13 36 18 22 30 52 55 54
39 38 38 41 42 41 39 42 41 48 49 43 30 25 20 30 33 30 30 7 19 21 28 41 56 52 37 29 22 16 19 15 9 7 7 9 8 9 15 10 21 7 3 6 8 11 39 43 42 50 47 54 56 61
37 30 30 32 34 38 40 40 39 39 48 41 29 20 17 24 29 28 32 22 16 21 44 26 26 13 17 23 19 13 5 10 6 10 8 6 8 6 8 10 18 19 24 12 19 9 34 65 46 54 59 71 79 81
38 34 31 32 34 33 35 37 36 35 44 42 29 22 21 21 32 29 31 13 12 11 11 5 3 2 14 17 19 22 21 12 13 16 10 6 7 11 11 16 20 9 21 16 27 29 63 31 54 60 72 77 76 79
45 41 36 36 37 35 34 34 33 31 38 42 30 17 15 20 33 34 35 32 27 14 9 28 45 29 26 18 15 17 18 10 11 9 6 6 12 11 13 15 6 7 7 5 8 46 37 50 71 82 81 71 68 82
43 40 36 36 35 37 35 34 33 26 33 38 23 17 17 24 33 26 12 6 20 25 9 8 18 10 31 23 20 19 17 13 10 6 9 12 9 4 5 7 7 25 27 25 16 47 58 69 69 67 76 66 84 86
45 44 37 37 38 40 38 32 29 22 33 30 18 16 24 20 36 19 10 8 27 22 7 12 10 9 31 27 28 19 16 9 7 4 9 19 12 5 3 5 29 38 39 45 36 39 44 50 64 83 61 83 91 82
47 53 39 39 41 41 36 30 27 17 30 21 18 15 13 24 25 33 33 26 27 19 7 6 9 13 29 26 18 21 18 9 10 7 9 9 1 7 5 9 30 37 51 41 42 54 58 73 69 73 76 81 81 72
50 47 36 35 38 34 28 27 21 21 25 22 19 13 22 19 14 12 8 22 21 15 6 7 7 1 21 30 25 23 21 8 15 7 5 9 5 3 14 26 26 38 35 51 57 55 58 64 66 73 80 83 82 79
49 46 40 39 39 37 28 25 26 26 26 28 23 11 8 8 10 9 14 19 17 12 12 9 28 17 20 17 13 9 17 7 6 7 8 5 2 11 22 20 26 37 41 42 49 59 62 62 67 75 77 85 78 82
37 37 41 43 41 35 27 30 32 34 37 38 16 11 11 11 14 7 9 13 14 8 14 18 36 19 14 7 7 7 5 1 4 5 4 6 4 13 22 25 31 37 36 41 42 50 58 65 60 73 81 80 89 84
47 47 45 42 39 29 32 40 46 54 35 33 18 15 12 10 9 6 7 9 10 8 18 18 18 24 1 5 4 6 5 3 5 15 5 4 4 16 21 27 36 40 42 47 41 52 56 63 57 69 84 83 88 81
51 47 46 39 33 33 38 45 56 48 38 29 8 9 8 9 9 10 10 8 9 12 14 17 9 5 7 6 7 5 7 5 15 7 5 4 14 18 24 29 38 44 48 45 42 46 55 62 61 62 82 90 87 82
37 33 31 33 34 39 47 59 56 54 33 9 12 9 9 10 10 11 13 10 10 4 16 15 16 9 5 5 3 6 3 5 6 4 6 7 20 21 26 29 37 49 54 52 44 48 54 62 66 65 72 89 87 88
29 31 30 32 36 46 59 60 53 56 11 10 10 9 15 18 14 16 21 22 6 4 6 6 10 7 4 3 4 6 5 2 7 6 6 17 20 24 28 32 36 49 58 59 45 49 58 63 66 68 69 86 91 95
27 25 35 33 45 62 63 62 57 38 10 7 10 9 11 9 17 22 23 13 9 8 7 8 5 7 4 3 4 3 9 5 4 3 7 16 22 25 28 31 35 41 49 61 43 46 50 55 61 62 67 71 92 91
28 26 33 46 63 70 66 59 30 11 10 8 12 25 16 16 12 14 15 12 13 16 10 6 6 5 8 3 2 3 2 1 11 13 10 13 21 27 29 28 34 38 43 53 55 54 49 48 53 60 72 71 84 94
45 39 53 70 82 79 56 21 11 13 12 20 11 18 26 18 14 15 9 7 7 17 9 5 1 6 6 2 5 8 8 3 7 7 8 14 17 21 24 29 31 36 40 43 44 54 60 52 52 59 65 71 70 86
53 61 72 78 79 44 12 20 10 9 20 11 25 19 24 15 2 11 9 4 9 9 4 5 2 4 3 7 13 16 10 6 5 5 7 12 15 19 22 25 27 32 36 37 38 45 55 54 49 49 62 70 59 78
59 68 73 74 61 10 9 10 14 8 8 14 19 21 25 20 15 10 10 11 12 7 5 4 6 9 14 16 12 13 12 11 10 8 8 8 11 16 21 23 27 29 31 36 33 38 46 60 66 54 55 63 57 77
86 88 77 60 25 9 8 12 14 12 8 13 23 27 19 20 19 20 15 10 9 5 6 4 21 15 18 16 14 14 13 13 15 11 7 16 17 18 21 24 27 29 33 38 41 44 48 52 63 70 45 50 55 59
67 83 63 41 5 4 5 11 6 7 8 11 30 28 20 22 23 18 16 12 7 9 4 17 19 21 18 16 14 15 16 13 7 7 7 9 18 20 23 25 29 30 34 39 41 44 47 50 55 61 53 41 43 48
76 56 30 6 4 7 5 15 8 10 8 16 28 13 11 15 8 14 7 6 7 9 11 21 23 17 20 19 18 17 14 10 14 12 13 14 15 17 19 23 28 30 33 36 37 39 43 48 52 51 55 51 38 46
52 14 11 15 12 9 12 13 11 9 10 14 13 8 10 8 12 5 6 13 14 19 22 23 25 23 21 18 16 14 12 9 11 12 12 12 14 16 18 20 24 28 30 29 33 37 39 41 47 51 53 60 50 37
11 9 10 6 14 12 11 10 9 8 8 13 16 6 8 9 6 7 9 17 24 26 25 27 25 22 20 20 15 10 7 7 9 11 12 12 12 12 14 16 20 27 31 33 37 38 39 39 43 45 50 60 58 45
5 11 16 14 12 10 9 11 13 15 11 10 9 11 11 7 8 5 3 22 27 29 29 28 25 20 20 17 16 13 9 8 8 10 11 12 14 14 15 17 19 23 28 31 34 38 39 39 42 45 44 46 53 50
6 8 12 12 11 10 7 7 11 10 11 7 10 9 7 8 8 6 13 11 25 26 24 22 19 17 20 16 13 11 8 8 10 12 11 12 15 17 17 18 21 22 22 28 31 34 38 37 39 41 42 41 42 46
5 6 9 7 7 6 5 6 9 10 7 8 17 11 12 2 5 6 9 11 19 21 18 17 15 17 19 16 13 12 11 9 10 13 12 12 16 18 17 15 18 29 23 29 32 31 37 33 34 36 39 37 38 39
6 8 18 7 7 6 9 7 4 4 1 12 8 6 7 8 12 14 12 18 23 22 24 25 22 21 20 18 15 11 9 5 10 11 13 11 5 12 16 16 17 19 20 22 30 38 35 33 33 33 33 32 35 36
10 17 8 8 7 2 4 6 12 15 20 23 26 34 36 29 22 20 24 21 21 22 22 22 18 20 20 18 15 12 12 13 11 9 9 9 6 8 11 14 16 17 20 21 22 25 31 27 29 31 34 34 40 43
19 10 8 7 6 10 17 19 18 19 24 30 32 38 35 31 29 21 15 13 17 20 20 18 19 17 15 14 12 15 12 10 14 15 14 6 4 6 11 14 16 17 18 21 22 24 30 31 32 35 36 38 40 42
10 10 9 6 6 13 18 13 10 11 18 29 31 30 30 24 12 8 17 13 14 19 16 17 18 16 16 17 16 24 23 19 12 6 8 5 1 5 10 12 13 15 17 17 19 22 32 38 34 35 37 39 41 41
6 10 8 12 7 7 11 11 6 5 7 9 11 16 15 8 8 5 2 17 17 11 16 17 19 20 22 20 18 15 10 5 8 7 6 7 8 8 8 12 10 14 14 12 14 15 21 31 30 29 31 33 36 37
Wind_Direction_850mb
293 293 291 286 289 289 282 272 271 275 284 292 296 297 282 275 289 303 303 235 257 273 284 276 294 291 279 262 294 351 292 354 310 290 303 323 314 326 310 314 292 189 240 217 251 245 263 10 357 359 311 312 316 317
288 292 294 292 289 290 286 278 273 273 275 284 275 283 270 265 288 298 306 239 269 261 266 271 277 264 251 261 290 291 304 285 354 327 349 324 340 302 322 306 324 360 11 276 294 298 316 350 333 329 350 334 325 319
289 294 301 305 299 293 288 282 270 268 268 278 281 255 255 265 282 293 300 287 275 286 301 272 278 258 229 228 227 253 315 343 40 338 324 290 279 273 289 302 334 321 15 342 331 310 343 335 338 337 326 317 308 307
287 289 294 304 307 304 299 287 273 266 264 271 276 267 242 266 269 296 292 291 266 280 279 330 269 295 226 208 219 229 262 293 317 306 307 278 272 291 297 308 307 4 339 336 291 304 336 314 319 316 316 316 309 303
276 281 287 294 304 298 300 293 275 267 260 262 280 262 261 260 264 275 303 293 213 243 302 301 290 277 212 201 218 225 237 261 285 300 260 266 285 329 318 282 55 359 336 310 286 308 301 293 304 310 310 313 319 319
266 274 278 289 295 293 291 294 277 265 259 258 276 232 262 263 250 271 316 9 187 225 273 289 318 259 196 200 208 204 213 223 231 293 272 273 298 357 323 316 133 353 342 331 285 294 295 296 303 310 308 317 327 320
263 261 271 284 294 292 283 282 275 257 251 252 247 245 237 265 231 261 252 219 185 221 257 288 281 244 199 206 209 199 201 198 223 222 253 261 288 136 250 263 349 343 331 317 307 315 310 309 306 314 323 322 323 323
265 263 262 277 284 283 276 269 263 241 247 242 212 224 244 223 247 280 285 236 187 203 248 274 272 241 202 216 198 178 175 189 200 229 249 251 93 202 239 321 340 338 331 319 320 320 302 303 320 327 328 331 328 321
267 256 258 275 280 279 267 264 237 228 225 203 190 212 215 235 259 276 114 159 197 227 264 238 264 2 190 236 228 173 183 173 167 221 236 138 235 232 8 354 348 337 326 313 321 317 321 331 331 336 334 336 336 329
253 251 257 263 275 270 265 249 207 211 197 182 181 174 219 225 197 191 140 168 205 224 230 258 261 269 284 299 215 227 172 190 191 204 126 209 151 46 45 26 345 335 328 324 321 321 324 328 340 337 335 339 329 335
244 246 256 262 270 257 249 220 199 186 177 178 179 194 206 168 173 223 201 193 194 225 219 241 238 266 292 283 322 306 319 284 249 130 240 200 111 37 22 2 348 341 333 329 323 320 325 331 340 333 334 333 337 335
257 261 264 255 252 240 234 203 196 185 180 181 164 172 153 176 215 236 222 199 199 244 188 227 204 224 14 286 255 222 236 247 246 164 228 125 63 35 4 357 351 346 341 338 333 328 331 337 342 341 340 339 340 340
261 259 256 242 231 233 220 201 196 197 170 150 155 152 175 182 218 223 210 209 214 203 196 201 180 172 169 190 234 215 238 230 141 211 117 82 33 14 2 355 349 347 347 344 337 338 336 338 343 343 345 347 345 348
246 239 233 233 226 223 203 194 190 185 158 149 159 188 222 187 232 206 233 304 251 224 166 209 161 197 142 203 266 264 306 294 261 196 75 33 18 356 354 352 348 348 349 346 339 340 338 341 344 349 351 352 353 356
236 237 237 229 225 207 194 186 187 180 151 172 192 218 216 241 250 246 253 247 217 172 187 192 137 116 49 317 334 317 259 173 37 36 335 0 356 352 350 347 345 347 349 351 340 341 340 343 346 350 354 353 360 1
232 233 227 220 192 189 176 176 179 174 176 201 224 243 228 230 254 240 209 188 176 214 228 200 184 146 135 278 254 2 329 37 80 211 347 347 345 347 347 345 344 346 346 353 349 343 341 346 348 350 358 354 4 3
210 201 203 181 178 171 175 169 159 170 202 221 233 226 236 242 223 197 208 196 175 236 231 185 202 134 135 132 166 19 10 151 265 56 10 349 341 341 344 345 345 346 344 352 5 3 351 347 352 356 359 360 2 8
202 201 176 170 167 167 162 155 154 188 224 227 242 217 216 243 230 198 185 138 201 248 273 35 139 156 168 213 153 178 158 196 65 28 337 339 345 348 346 343 347 350 345 349 350 353 4 3 357 356 356 1 2 9
202 179 176 176 170 141 131 176 189 219 221 223 217 209 206 217 235 179 152 187 258 314 57 208 72 125 128 64 108 102 110 65 81 36 2 348 351 355 356 352 355 355 353 352 358 354 359 4 356 359 0 0 4 7
181 174 176 171 154 115 129 157 187 247 218 214 209 204 197 208 189 179 180 186 186 179 179 235 74 70 112 90 98 91 97 104 104 89 21 21 14 17 13 13 10 9 5 3 7 1 3 8 11 9 15 5 3 5
163 164 170 156 139 120 162 167 190 213 207 180 188 190 197 184 187 197 176 178 202 248 121 99 97 97 109 113 102 110 112 114 110 91 25 34 29 25 23 22 19 17 15 13 9 5 8 4 358 3 7 16 10 2
151 168 154 155 89 143 215 198 208 196 203 196 187 190 186 195 197 190 138 196 184 145 85 131 134 141 131 116 107 115 123 109 127 71 29 59 34 32 30 25 21 24 22 17 12 10 8 6 359 2 11 18 22 8
157 157 144 114 155 188 238 171 192 220 185 186 184 199 197 182 113 138 176 145 138 170 157 130 143 139 129 127 119 115 109 100 91 73 57 60 50 37 34 31 23 23 21 17 14 14 10 6 7 4 8 16 28 26
136 126 158 175 189 191 180 195 218 213 197 180 184 189 160 122 133 202 202 160 147 172 151 146 151 144 141 145 139 130 127 108 98 73 56 52 50 42 36 33 26 25 23 17 16 15 13 13 9 11 8 15 16 28
118 163 161 195 208 196 186 183 183 215 187 180 177 146 131 128 160 219 221 144 165 171 164 171 163 165 161 149 141 145 122 122 105 89 57 50 49 47 41 37 27 22 19 18 18 15 14 16 13 14 12 8 13 16
141 180 187 205 179 183 175 167 193 198 178 173 163 144 130 152 206 209 110 149 166 172 172 181 180 181 152 154 152 144 133 127 119 101 68 57 57 51 40 32 20 15 22 14 13 11 14 16 14 15 16 13 7 14
159 218 197 205 199 176 156 150 169 199 182 177 148 145 154 167 186 77 84 116 151 157 169 178 178 174 155 145 146 148 138 117 115 121 108 81 65 59 49 38 25 12 21 11 16 10 10 13 13 14 14 12 10 7
244 185 174 144 118 93 112 171 188 192 195 162 152 174 173 150 91 92 116 124 151 160 165 156 143 145 143 147 154 146 142 142 125 126 116 89 65 52 45 34 16 25 17 2 11 9 8 12 11 12 12 9 6 9
196 173 141 130 119 186 210 212 178 143 238 184 152 80 100 96 117 122 135 148 152 152 147 140 131 127 128 133 129 125 124 147 196 179 184 128 46 17 14 17 15 14 11 12 359 350 355 23 3 9 12 8 0 8
154 157 120 131 162 159 77 98 93 82 78 95 102 107 107 107 109 114 127 139 147 151 151 149 149 153 151 143 127 106 92 91 103 130 137 118 54 3 1 5 4 5 3 4 1 354 353 10 359 4 6 4 356 359
147 134 129 129 89 96 106 101 94 88 93 106 119 121 120 117 104 99 111 139 151 152 153 153 164 161 162 166 157 162 124 91 84 99 103 74 37 15 7 2 354 354 0 357 355 355 356 358 354 353 355 354 352 351
150 176 161 122 105 91 96 74 62 91 108 107 111 121 131 127 93 85 17 64 164 163 153 163 160 138 126 116 107 103 122 132 126 107 140 133 27 355 12 349 351 355 355 354 350 351 337 342 348 352 351 349 348 349
132 129 107 108 107 122 125 116 107 74 76 85 90 101 101 86 98 110 128 78 65 125 134 123 128 121 120 121 121 133 190 292 326 323 331 334 337 336 336 333 358 4 358 349 346 358 350 340 348 354 354 351 349 349